Miscellaneous Local Product
Issued by NWS North Platte, NE

Home | Current Version | Previous Version | Text Only | Print | Product List | Glossary On
Versions: 1 2 3 4 5 6 7 8 9 10 11 12 13 14 15 16 17 18 19 20 21 22 23 24 25 26 27 28 29 30 31 32 33 34 35 36 37 38 39 40 41 42 43 44 45 46 47 48 49 50
000
AXUS43 KLBF 260810
MISLBF


WESTERN AND NORTH CENTRAL NEBRASKA HOURLY WEATHER ROUNDUP
NATIONAL WEATHER SERVICE NORTH PLATTE NE
300 AM CDT MON JUN 26 2017

NOTE: "FAIR" INDICATES FEW OR NO CLOUDS BELOW 12,000 FEET WITH NO
SIGNIFICANT WEATHER AND/OR OBSTRUCTIONS TO VISIBILITY.

NOTE: STATIONS NOT REPORTING VARIABLES SUCH AS SKY/WEATHER OR
PRESSURE ARE PROVIDED BY RAWS AND APRS NETWORKS AND ARE NOT UNDER
NATIONAL WEATHER SERVICE QUALITY CONTROL.

...OBSERVATIONS IN AND NEAR THE EASTERN PANHANDLE OF NEBRASKA...

CITY           SKY/WX    TMP DP  RH WIND       PRES   REMARKS
PINE RIDGE     CLEAR     48  42  80 E8        30.24S
GORDON         PTSUNNY   54  41  60 NE8       30.24R
CHADRON        CLEAR     49  41  74 N3        30.23R
ALLIANCE       PTCLDY    53  50  89 NE3       30.23S
SIDNEY         CLEAR     56  53  90 SW8       30.26F
CRESCENT LAKE    N/A     56  52  87 CALM        N/A
$$

...OBSERVATIONS IN NORTHERN NEBRASKA AND FAR SOUTHERN SOUTH DAKOTA...

CITY           SKY/WX    TMP DP  RH WIND       PRES   REMARKS
WINNER         FAIR      52  46  80 E7        30.21R
VALENTINE      CLEAR     57  40  52 NE9       30.20R
THEDFORD       CLEAR     58  54  86 SW6       30.22F
AINSWORTH      CLEAR     58  53  83 NW8       30.19R
O`NEILL        CLEAR     58  50  75 SW5       30.17S
ORD            MOCLDY    58  49  72 S5        30.19F
BROKEN BOW     CLOUDY    59  52  77 SW7       30.21F
VALENTINE NWR    N/A     59  52  77 SW8         N/A
HALSEY           N/A     60  53  77 SW5         N/A
BUTTE            N/A     55  46  72 NE14        N/A
CHAMBERS         N/A     61  51  69 CALM        N/A
EWING            N/A     59  51  74 SW5         N/A
$$

...OBSERVATIONS IN SOUTHWEST NEBRASKA AND FAR NORTHEAST COLORADO...

CITY           SKY/WX    TMP DP  RH WIND       PRES   REMARKS
WRAY           FAIR     N/A N/A N/A SW6       30.26F
IMPERIAL       CLEAR     57  55  93 SW7       30.24F
OGALLALA       CLEAR     55  53  93 W6        30.23S
NORTH PLATTE   CLEAR     56  54  93 S5        30.23F
MCCOOK         CLOUDY    60  59  96 SW6       30.24F
LEXINGTON      PTCLDY    58  54  86 SW6       30.25S
STAPLETON        N/A     54  51  89 CALM        N/A
GOTHENBURG       N/A     59  52  78 SW3         N/A
CALLAWAY         N/A     56  53  90 S3          N/A
$$

...OBSERVATIONS IN CENTRAL LINCOLN COUNTY AREA...

CITY           SKY/WX    TMP DP  RH WIND       PRES   REMARKS
N.P. AIRPORT   CLEAR     56  54  93 S5        30.23F
N.P. DOWNTOWN    N/A     56  54  92 CALM        N/A
N.P. SOUTHEAST   N/A     57  54  89 CALM        N/A
N.P. HILLCREST   N/A     56  53  91 SW3         N/A
$$

...SOME OBSERVATIONS FROM AROUND THE REGION...

CITY           SKY/WX    TMP DP  RH WIND       PRES   REMARKS
DENVER         CLEAR     58  53  84 S12       30.31F
LIMON          PTCLDY    53  53 100 CALM      30.35F
ASPEN          CLOUDY    48  33  56 S6        30.40S
LARAMIE        CLEAR     49  45  86 S7        30.38S
CASPER         CLEAR     49  35  58 N7        30.31S
CHEYENNE       PTCLDY    54  52  93 SW10      30.34F FOG
SCOTTSBLUFF    CLEAR     58  52  80 CALM      30.23S
GRAND ISLAND   CLOUDY    62  52  69 SW14      30.22S
OMAHA          MOCLDY    63  49  60 S6        30.17S
SIOUX FALLS    CLOUDY    55  53  93 NE5       30.19F
PIERRE         CLEAR     48  44  86 NE10      30.21S
RAPID CITY     PTCLDY    49  36  61 S3        30.27S
BISMARCK       CLEAR     46  43  89 CALM      30.26S
KANSAS CITY    CLEAR     55  54  96 SW7       30.23R
HILL CITY      CLEAR     57  55  93 SW6       30.26F
WICHITA        MOCLDY    63  54  72 E5        30.23S
DODGE CITY     MOCLDY    60  58  92 SE8       30.26F
OKLAHOMA CITY  CLOUDY    69  55  60 S6        30.19S
DALLAS         CLOUDY    77  65  66 SE10      30.14F
AMARILLO       CLOUDY    61  56  83 S16       30.23R
$$




USA.gov is the U.S. government's official web portal to all federal, state and local government web resources and services.